• en Suisse
  • Liste des pays
  • À 7 jours
  • Température de l'eau
  • Carte satellitaire
  • Carte météo
  • Widgets météo
  • user-avatar
    Se connecter

    Météo par heure à Serdyuky

    Ce jour, 14 Novembre, Mercredi

    Heure Température Précipitation Vent Pression Humidité
    00:00 -2°C° 0 mm 6 m/s 753 mmHg 65%
    01:00 -1°C° 0 mm 5 m/s 752 mmHg 65%
    02:00 -1°C° 0 mm 5 m/s 752 mmHg 66%
    03:00 -1°C° 1 mm 5 m/s 751 mmHg 72%
    04:00 -1°C° 1 mm 5 m/s 750 mmHg 79%
    05:00 -1°C° 1 mm 5 m/s 750 mmHg 86%
    06:00 0°C° 1.5 mm 5 m/s 750 mmHg 88%
    07:00 0°C° 1.5 mm 4 m/s 749 mmHg 90%
    08:00 +1°C° 1.5 mm 4 m/s 749 mmHg 92%
    09:00 +3°C° 0.2 mm 4 m/s 749 mmHg 91%
    10:00 +4°C° 0.2 mm 4 m/s 749 mmHg 91%
    11:00 +5°C° 0.2 mm 4 m/s 749 mmHg 90%
    12:00 +5°C° 0.1 mm 3 m/s 749 mmHg 89%
    13:00 +7°C° 0.1 mm 3 m/s 749 mmHg 88%
    14:00 +8°C° 0.1 mm 3 m/s 748 mmHg 87%
    15:00 +7°C° 0.1 mm 3 m/s 748 mmHg 88%
    16:00 +7°C° 0.1 mm 3 m/s 748 mmHg 88%
    17:00 +7°C° 0.1 mm 3 m/s 748 mmHg 89%
    18:00 +7°C° 0.2 mm 3 m/s 748 mmHg 90%
    19:00 +5°C° 0.2 mm 3 m/s 748 mmHg 90%
    20:00 +5°C° 0.2 mm 4 m/s 748 mmHg 91%
    21:00 +5°C° 0.2 mm 4 m/s 749 mmHg 91%
    22:00 +5°C° 0.2 mm 4 m/s 749 mmHg 90%
    23:00 +5°C° 0.2 mm 4 m/s 749 mmHg 89%

    Demain, 15 Novembre, Jeudi

    Heure Température Précipitation Vent Pression Humidité
    00:00 +5°C° 0.4 mm 4 m/s 749 mmHg 89%
    01:00 +4°C° 0.4 mm 4 m/s 750 mmHg 88%
    02:00 +4°C° 0.4 mm 4 m/s 750 mmHg 87%
    03:00 +4°C° 0.3 mm 4 m/s 750 mmHg 87%
    04:00 +3°C° 0.3 mm 4 m/s 750 mmHg 87%
    05:00 +3°C° 0.3 mm 4 m/s 750 mmHg 87%
    06:00 +1°C° 0.1 mm 4 m/s 751 mmHg 87%
    07:00 +1°C° 0.1 mm 4 m/s 752 mmHg 88%
    08:00 +1°C° 0.1 mm 4 m/s 752 mmHg 88%
    09:00 +1°C° 0 mm 4 m/s 753 mmHg 87%
    10:00 +1°C° 0 mm 4 m/s 753 mmHg 87%
    11:00 +2°C° 0 mm 3 m/s 754 mmHg 86%
    12:00 +3°C° 0 mm 3 m/s 754 mmHg 86%
    13:00 +3°C° 0 mm 3 m/s 754 mmHg 85%
    14:00 +3°C° 0 mm 3 m/s 755 mmHg 85%
    15:00 +4°C° 0 mm 2 m/s 755 mmHg 86%
    16:00 +4°C° 0 mm 2 m/s 756 mmHg 88%
    17:00 +3°C° 0 mm 2 m/s 756 mmHg 89%
    18:00 +3°C° 0 mm 2 m/s 756 mmHg 90%
    19:00 +3°C° 0 mm 2 m/s 757 mmHg 90%
    20:00 +3°C° 0 mm 2 m/s 757 mmHg 91%
    21:00 +3°C° 0 mm 2 m/s 758 mmHg 91%
    22:00 +4°C° 0 mm 1 m/s 758 mmHg 91%
    23:00 +4°C° 0 mm 1 m/s 758 mmHg 92%

    Après-demain, 16 Novembre, Vendredi

    Heure Température Précipitation Vent Pression Humidité
    00:00 +4°C° 0 mm 1 m/s 758 mmHg 92%
    01:00 +4°C° 0 mm 1 m/s 758 mmHg 92%
    02:00 +4°C° 0 mm 1 m/s 759 mmHg 93%
    03:00 +4°C° 0 mm 1 m/s 759 mmHg 93%
    04:00 +4°C° 0 mm 1 m/s 759 mmHg 93%
    05:00 +3°C° 0 mm 1 m/s 759 mmHg 93%
    06:00 +3°C° 0 mm 1 m/s 760 mmHg 93%
    07:00 +2°C° 0 mm 2 m/s 760 mmHg 93%
    08:00 +2°C° 0 mm 2 m/s 760 mmHg 93%
    09:00 +2°C° 0 mm 2 m/s 760 mmHg 88%
    10:00 +3°C° 0 mm 2 m/s 761 mmHg 82%
    11:00 +3°C° 0 mm 2 m/s 761 mmHg 77%
    12:00 +4°C° 0 mm 2 m/s 761 mmHg 73%
    13:00 +3°C° 0 mm 3 m/s 761 mmHg 68%
    14:00 +3°C° 0 mm 3 m/s 761 mmHg 64%
    15:00 +3°C° 0 mm 2 m/s 761 mmHg 69%
    16:00 +2°C° 0 mm 2 m/s 761 mmHg 73%
    17:00 +1°C° 0 mm 2 m/s 761 mmHg 78%
    18:00 -1°C° 0 mm 2 m/s 761 mmHg 79%
    19:00 -1°C° 0 mm 2 m/s 762 mmHg 80%
    20:00 -2°C° 0 mm 3 m/s 762 mmHg 81%
    21:00 -2°C° 0 mm 2 m/s 762 mmHg 81%
    22:00 -2°C° 0 mm 2 m/s 762 mmHg 81%
    23:00 -3°C° 0 mm 2 m/s 762 mmHg 81%

    17 Novembre, Samedi

    Heure Température Précipitation Vent Pression Humidité
    00:00 -3°C° 0 mm 2 m/s 762 mmHg 79%
    01:00 -3°C° 0 mm 2 m/s 762 mmHg 78%
    02:00 -3°C° 0 mm 2 m/s 762 mmHg 76%
    03:00 -3°C° 0 mm 2 m/s 762 mmHg 74%
    04:00 -3°C° 0 mm 2 m/s 762 mmHg 72%
    05:00 -4°C° 0 mm 2 m/s 762 mmHg 70%
    06:00 -4°C° 0 mm 2 m/s 762 mmHg 68%
    07:00 -4°C° 0 mm 2 m/s 762 mmHg 66%
    08:00 -4°C° 0 mm 2 m/s 762 mmHg 65%
    09:00 -3°C° 0 mm 2 m/s 762 mmHg 58%
    10:00 -1°C° 0 mm 2 m/s 762 mmHg 52%
    11:00 +1°C° 0 mm 2 m/s 762 mmHg 45%
    12:00 +2°C° 0 mm 2 m/s 762 mmHg 43%
    13:00 +2°C° 0 mm 2 m/s 761 mmHg 41%
    14:00 +3°C° 0 mm 2 m/s 761 mmHg 38%
    15:00 +2°C° 0 mm 2 m/s 761 mmHg 44%
    16:00 -1°C° 0 mm 2 m/s 761 mmHg 50%
    17:00 -2°C° 0 mm 2 m/s 761 mmHg 56%
    18:00 -2°C° 0 mm 2 m/s 760 mmHg 57%
    19:00 -1°C° 0 mm 1 m/s 760 mmHg 58%
    20:00 -1°C° 0 mm 1 m/s 760 mmHg 59%
    21:00 -1°C° 0 mm 1 m/s 760 mmHg 59%
    22:00 -1°C° 0 mm 1 m/s 760 mmHg 60%
    23:00 -1°C° 0 mm 1 m/s 759 mmHg 60%

    18 Novembre, Dimanche

    Heure Température Précipitation Vent Pression Humidité
    00:00 -3°C° 0 mm 2 m/s 759 mmHg 61%
    01:00 -3°C° 0 mm 2 m/s 758 mmHg 62%
    02:00 -3°C° 0 mm 2 m/s 758 mmHg 63%
    03:00 -3°C° 0 mm 2 m/s 757 mmHg 65%
    04:00 -2°C° 0 mm 3 m/s 756 mmHg 66%
    05:00 -2°C° 0 mm 3 m/s 756 mmHg 67%
    06:00 -2°C° 0.1 mm 3 m/s 755 mmHg 71%
    07:00 -2°C° 0.1 mm 4 m/s 754 mmHg 74%
    08:00 -2°C° 0.1 mm 4 m/s 754 mmHg 77%
    09:00 -1°C° 0.2 mm 4 m/s 753 mmHg 80%
    10:00 -1°C° 0.2 mm 4 m/s 752 mmHg 82%
    11:00 0°C° 0.2 mm 4 m/s 752 mmHg 85%
    12:00 0°C° 0.1 mm 4 m/s 751 mmHg 87%
    13:00 0°C° 0.1 mm 4 m/s 751 mmHg 88%
    14:00 +1°C° 0.1 mm 4 m/s 750 mmHg 90%
    15:00 +1°C° 0.1 mm 3 m/s 750 mmHg 92%
    16:00 +1°C° 0.1 mm 3 m/s 749 mmHg 94%
    17:00 +1°C° 0.1 mm 3 m/s 749 mmHg 95%
    18:00 +1°C° 0.1 mm 3 m/s 748 mmHg 95%
    19:00 +1°C° 0.1 mm 3 m/s 748 mmHg 94%
    20:00 0°C° 0.1 mm 3 m/s 748 mmHg 94%
    21:00 0°C° 0.1 mm 3 m/s 748 mmHg 94%
    22:00 0°C° 0.1 mm 3 m/s 748 mmHg 94%
    23:00 0°C° 0.1 mm 3 m/s 748 mmHg 94%

    19 Novembre, Lundi

    Heure Température Précipitation Vent Pression Humidité
    00:00 0°C° 0.2 mm 3 m/s 747 mmHg 93%
    01:00 0°C° 0.2 mm 3 m/s 747 mmHg 92%
    02:00 -1°C° 0.2 mm 4 m/s 747 mmHg 91%
    03:00 0°C° 0.1 mm 3 m/s 747 mmHg 91%
    04:00 0°C° 0.1 mm 3 m/s 747 mmHg 92%
    05:00 -1°C° 0.1 mm 3 m/s 747 mmHg 92%
    06:00 -1°C° 0.1 mm 3 m/s 747 mmHg 92%
    07:00 -1°C° 0.1 mm 3 m/s 747 mmHg 92%
    08:00 -1°C° 0.1 mm 3 m/s 747 mmHg 93%
    09:00 0°C° 0.2 mm 3 m/s 747 mmHg 91%
    10:00 0°C° 0.2 mm 3 m/s 747 mmHg 89%
    11:00 +1°C° 0.2 mm 3 m/s 747 mmHg 88%
    12:00 +1°C° 0.1 mm 3 m/s 747 mmHg 87%
    13:00 +1°C° 0.1 mm 3 m/s 747 mmHg 87%
    14:00 +1°C° 0.1 mm 3 m/s 747 mmHg 87%
    15:00 +1°C° 0.1 mm 3 m/s 747 mmHg 89%
    16:00 +1°C° 0.1 mm 3 m/s 747 mmHg 90%
    17:00 0°C° 0.1 mm 3 m/s 747 mmHg 92%
    18:00 0°C° 0.1 mm 3 m/s 748 mmHg 92%
    19:00 0°C° 0.1 mm 3 m/s 748 mmHg 91%
    20:00 0°C° 0.1 mm 3 m/s 748 mmHg 91%
    21:00 0°C° 0.1 mm 3 m/s 748 mmHg 91%
    22:00 0°C° 0.1 mm 3 m/s 749 mmHg 90%
    23:00 -2°C° 0.1 mm 4 m/s 749 mmHg 90%
    Voir plus